Regional Weather Roundup
Issued by NWS

Home | Current Version | Previous Version | Text Only | Print | Product List | Glossary On
Versions: 1 2 3 4 5 6 7 8 9 10 11 12 13 14 15 16 17 18 19 20 21 22 23 24 25 26 27 28 29 30 31 32 33 34 35 36 37 38 39 40 41 42 43 44 45 46 47 48 49 50
000
ASUS46 KLOX 291813
RWRCA

SOUTHERN CALIFORNIA WEATHER ROUNDUP
NATIONAL WEATHER SERVICE OXNARD CALIFORNIA
1100 AM PDT WED JUL 29 2015

NOTE: "FAIR" INDICATES FEW OR NO CLOUDS BELOW 12,000 FEET WITH NO
SIGNIFICANT WEATHER AND/OR OBSTRUCTIONS TO VISIBILITY.

  -  STATIONS PRECEEDED BY AN ASTERISK (*) ARE NOT NWS OR FAA
     STATIONS AND ARE NOT SUBJECT TO NWS AND FAA QUALITY CONTROL.

CAZ041-042-087-291900-
LA AND ORANGE COUNTY COASTAL AREAS


CITY           SKY/WX    TMP DP  RH WIND       PRES   REMARKS
L.A. DOWNTOWN  SUNNY     77  64  64 CALM      29.94S
L.A. AIRPORT   PTSUNNY   71  63  75 W7        29.96R
LONG BEACH     CLOUDY    75  64  68 S7        29.96R

CITY           SKY/WX    TMP DP  RH WIND       PRES   REMARKS
AVALON           N/A     72 N/A N/A E1          N/A
FULLERTON      SUNNY     78  64  61 CALM      29.94S
HAWTHORNE      MOSUNNY   75  63  66 W8        29.96R HAZE
*LOS ALAMITOS  PTSUNNY   76  66  71 VRB6      29.95S
*REDONDO BEACH   N/A     75  64  67 W3        29.96S
SANTA ANA      PTSUNNY   73  64  73 CALM      29.95S
STA MONICA APT MOSUNNY   73  63  70 SW8       29.96R
TORRANCE       MOSUNNY   77  64  65 W9        29.96

$$

CAZ547-548-048-291900-
LA COUNTY VALLEYS AND INLAND EMPIRE


CITY           SKY/WX    TMP DP  RH WIND       PRES   REMARKS
BURBANK        SUNNY     78  62  57 E7        29.95S
VAN NUYS       SUNNY     80  61  52 MISG      29.95S

CITY           SKY/WX    TMP DP  RH WIND       PRES   REMARKS
CORONA AIRPORT CLEAR     80  65  60 CALM      29.96R
*CHATSWORTH      N/A     82  62  49 NE2       29.93S
CHINO          MOSUNNY   82  64  54 CALM      29.96S
MARCH AFB      MOSUNNY   87  63  44 VRB5      29.97S
*NORTHRIDGE      N/A     81  57  44 SE3         N/A
ONTARIO        MOSUNNY   80  61  52 SW3       29.96S
*PASADENA        N/A     79  66  65 N2          N/A
RIVERSIDE      MOSUNNY   81  62  52 CALM      29.95F
SAN BERNARDINO MOSUNNY   81  57  44 CALM      29.97R HAZE
*WHITEMAN AP   SUNNY     75  61  60 SE7       29.99S
*WOODLAND HILL   N/A     82  59  44 E3          N/A

$$

CAZ054-055-291900-
LA AND SAN BERNARDINO COUNTY MOUNTAINS


CITY           SKY/WX    TMP DP  RH WIND       PRES   REMARKS
*BIG BEAR AIRP MOCLDY    72  48  43 E3        30.34S
SANDBERG       SUNNY     93  17   6 E12       30.17S

$$

CAZ028-029-059-060-099-291900-
ANTELOPE VALLEY AND SURROUNDING AREAS


CITY           SKY/WX    TMP DP  RH WIND       PRES   REMARKS
LANCASTER      SUNNY     92  33  12 CALM      30.02F
PALMDALE       SUNNY     91  34  13 CALM      30.04S

CITY           SKY/WX    TMP DP  RH WIND       PRES   REMARKS
29 PALMS       MOSUNNY   95  54  25 MISG      30.08S HX  93
BARSTOW/DAGGET MOSUNNY   97  29   9 NE5       29.99S HX  91
BISHOP         SUNNY     88  27  11 VRB3      30.16F
CHINA LAKE     MOSUNNY   96  31  10 CALM      30.02R HX  90
EDWARDS AFB    MOSUNNY   89  32  13 E3        30.01R
MOJAVE         SUNNY     91  36  14 NE6       30.05S
NEEDLES        MOSUNNY  100  57  23 SW9       29.95S HX  99
VICTORVILLE    SUNNY     93  28  10 CALM      30.06R

$$

CAZ039-040-291900-
VENTURA AND SANTA BARBARA COUNTY COAST


CITY           SKY/WX    TMP DP  RH WIND       PRES   REMARKS
CAMARILLO      MOSUNNY   73  62  68 SW8       29.95S
OXNARD AIRPORT CLOUDY    68  61  78 SW8       29.96R
*POINT MUGU    CLOUDY    71  63  75 S7        29.97R HAZE
SBA APT/GOLETA CLOUDY    67  60  78 SW7       29.96R
*SANTA BARBARA   N/A     70  60  70 CALM      30.03S
*VENTURA         N/A     71  62  73 SE6       29.56S

$$

CAZ044-045-291900-
VENTURA COUNTY VALLEYS


CITY           SKY/WX    TMP DP  RH WIND       PRES   REMARKS
*SIMI VALLEY     N/A     78  64  62 SW3       29.89S
*OJAI            N/A     84  64  49 W1        29.87S
*FILLMORE        N/A     80  66  64 CALM      29.84S

$$

CAZ053-291900-
VENTURA COUNTY MOUNTAINS


CITY           SKY/WX    TMP DP  RH WIND       PRES   REMARKS

$$

CAZ034-035-036-291900-
CENTRAL COAST AND SANTA YNEZ VALLEY


CITY           SKY/WX    TMP DP  RH WIND       PRES   REMARKS
SAN LUIS OBISP SUNNY     69  59  70 SW5       29.95F
SANTA MARIA    MOSUNNY   69  60  73 VRB5      29.96S

CITY           SKY/WX    TMP DP  RH WIND       PRES   REMARKS
*CAL POLY SLO    N/A     70  63  78 W3          N/A
*LOMPOC        SUNNY     68  55  64 W7        29.97S
*PISMO BEACH     N/A     61  59  94 S3        29.98R
*SANTA YNEZ    FAIR      77  54  44 W6        29.95S

$$

CAZ037-038-051-291900-
SAN LUIS OBISPO COUNTY INTERIOR AND CUYAMA VALLEY


CITY           SKY/WX    TMP DP  RH WIND       PRES   REMARKS
*CUYAMA          N/A     90  45  20 S2        29.85S
PASO ROBLES    SUNNY     84  51  31 CALM      29.93F

$$

CAZ032-033-061-291900-
SOUTHERN DESERTS


CITY           SKY/WX    TMP DP  RH WIND       PRES   REMARKS
BLYTHE         MOSUNNY   96  66  37 SE8       29.93S HX  99
IMPERIAL       PTSUNNY   93  72  50 SE8       29.89S HX 101
PALM SPRINGS   MOSUNNY   94  70  45 NE8       29.96F HX 100
THERMAL        MOSUNNY   94  70  45 SE10      29.90S HX 100

$$

ELSEWHERE ACROSS THE WESTERN UNITED STATES AND MEXICO


CITY           SKY/WX    TMP DP  RH WIND       PRES   REMARKS
DENVER, CO     MOSUNNY   82  48  30 SE17G25   30.31F
GRAND CANYON,  PTSUNNY   83  25  12 MISG      30.36R
HONOLULU, HI   MOSUNNY   81  70  69 E8G20     29.95R
KAHULUI, MAUI  MOSUNNY   81  70  69 W5        29.96R
LAKE TAHOE, CA SUNNY     78  30  17 VRB7      30.32S
LAS VEGAS, NV  MOSUNNY   96  29   9 E8        30.00S HX  90
MAMMOTH LAKES, FAIR      75  25  15 E7        30.39R
MEXICO CITY, M MOSUNNY   72  46  40 NE9       30.38S
PHOENIX, AZ    CLOUDY    93  62  35 SW6       29.98R HX  93
PORTLAND, OR   SUNNY     78  54  43 NW8       30.11F
RENO, NV       SUNNY     82  23  11 VRB3      30.23F
SALT LAKE CITY SUNNY     76  32  20 NW6       30.30S
SAN DIEGO, CA  MOSUNNY   74  62  66 SW8       29.97R
SAN FRANCISCO, MOSUNNY   71  61  70 N5        29.93R
SAN JOSE, CA   SUNNY     81  48  31 CALM      29.91S
SEATTLE, WA    MOSUNNY   75  52  44 W8        30.19F
TIJUANA, MEX   SUNNY     75  59  57 W9        29.98S

$$

STATION/POSITION TIME  TEMP    WIND        PRES    VSBY  WAVE
                       AIR SEA DIR/SP/G                  HT/PER
                 (UTC) (F)     (DEG/KT/KT) (MB)    (MI)  (FT/S)
POINT ARGUELLO B NOT AVBL
WEST SANTA BARBA 1750   60 61  310/  8/ 10 1014.0R         5/16
POINT CONCEPTION NOT AVBL
EAST SANTA BARBA 1800   63 66   CALM  /  2 1015.3R
SANTA MONICA BAY 1750   66 71  300/  4/  4 1014.6R         3/16


USA.gov is the U.S. government's official web portal to all federal, state and local government web resources and services.